Location: Stokes Fall Starparty
(41.2298°N, 74.7506°W)
Time: 00:59:07
(UTC-04:00)

Daily predictions for brighter satellites

Satellite Brightness Start Highest point End
(mag) Time Altitude Azimuth Time Altitude Azimuth Time Altitude Azimuth
Cosmos 2322 Rocket 3.6 00:00:03 10° N 00:04:58 29° NE 00:06:37 25° E
H-2A R/B 4.4 00:04:44 10° WSW 00:06:07 11° W 00:07:30 10° WNW
Cosmos 1953 Rocket 4.4 00:07:55 44° NE 00:07:55 44° NE 00:11:15 10° NNE
SME Rocket 3.6 00:07:12 82° SSE 00:07:28 89° WNW 00:12:02 10° NNW
Cosmos 1825 Rocket 4.2 00:12:07 53° N 00:12:07 53° N 00:15:27 10° N
USA 267 3.5 00:07:28 10° NE 00:13:57 66° NW 00:19:33 14° WSW
CZ-2C R/B 3.1 00:22:49 78° ENE 00:22:49 78° ENE 00:28:23 10° N
Cosmos 2082 Rocket 3.6 00:24:51 23° WSW 00:27:23 34° WNW 00:32:31 10° N
SeaSat 1 2.7 00:29:44 63° WNW 00:29:44 63° WNW 00:34:04 10° NNW
Cosmos 972 Rocket 4.2 00:29:36 10° NNW 00:34:39 65° NE 00:34:39 65° NE
CZ-4B R/B 4.3 00:37:24 13° NNE 00:37:24 13° NNE 00:38:05 10° NNE
Cosmos 1953 3.7 00:32:16 10° NNW 00:34:56 37° NW 00:34:56 37° NW
Cosmos 2360 4.2 00:34:12 10° NNW 00:39:39 69° W 00:39:39 69° W
Cosmos 1934 Rocket 3.8 00:34:22 10° N 00:40:48 89° WSW 00:41:19 77° S
Geosat 4.4 00:36:02 10° NNE 00:40:12 55° ENE 00:40:12 55° ENE
CZ-2C R/B 2.7 00:39:08 10° N 00:44:44 72° WNW 00:44:57 71° W
USA 229 DEB 3.7 00:37:44 10° NW 00:44:53 76° WSW 00:45:48 67° S
USA 229 3.7 00:37:50 10° NW 00:44:59 77° WSW 00:45:55 67° S
SL-24 R/B - RUBIN 2 4.5 00:46:32 67° SW 00:47:32 83° WNW 00:54:07 10° NNE
Meteor 2-5 Rocket 3.9 00:47:56 64° E 00:47:59 64° E 00:53:53 10° NNE
USA 234 3.3 00:45:40 42° ESE 00:48:03 73° NE 00:54:34 10° NW
ATLAS CENTAUR R/B 3.2 00:49:23 10° NNW 00:51:45 25° NNE 00:51:45 25° NNE
SL-16 R/B 2.3 00:48:12 10° NNW 00:53:51 66° ENE 00:54:10 65° E
Cosmos 1697 Rocket 4.2 00:50:06 10° NW 00:53:56 24° W 00:53:56 24° W
Cosmos 494 Rocket 4.1 00:57:25 71° NNE 00:57:25 71° NNE 01:02:01 10° NNE
Cosmos-2242 4.0 00:53:26 10° NNW 00:56:30 45° NNW 00:56:30 45° NNW
H-2A R/B 4.3 00:58:04 10° NE 01:00:29 25° ENE 01:00:29 25° ENE
Lacrosse 5 rocket 3.6 01:00:06 10° NNW 01:04:03 27° NNE 01:06:52 15° E
Lacrosse 5 2.8 01:18:10 37° E 01:18:10 37° E 01:21:34 10° NE
Cosmos 1727 Rocket 3.8 01:17:49 76° SW 01:18:17 83° W 01:24:33 10° N
Cosmos 2221 4.0 01:15:07 10° NNE 01:18:30 30° ENE 01:18:30 30° ENE
Cosmos 2098 Rocket 3.9 01:15:52 10° NNW 01:19:04 49° NW 01:19:04 49° NW
Cosmos 1842 Rocket 4.2 01:17:44 10° N 01:21:16 55° N 01:21:16 55° N
Cosmos 1339 Rocket 4.3 01:23:56 72° SW 01:24:29 78° W 01:30:50 10° N
In-Cosmos 22 4.5 01:25:11 53° E 01:25:11 53° E 01:30:24 10° NNE
Cosmos 1302 Rocket 4.0 01:20:23 10° NNW 01:25:14 76° NW 01:25:14 76° NW
ISS -0.5 01:26:58 10° NW 01:28:44 14° N 01:30:31 10° NNE
Cosmos 2251 Rocket 3.9 01:29:18 53° WNW 01:29:27 53° WNW 01:34:43 10° N
Cosmos 1605 Rocket 4.2 01:25:56 10° NNW 01:31:47 51° W 01:31:59 50° W
Landsat 5 4.3 01:34:54 52° NW 01:34:54 52° NW 01:38:26 10° NNW
BREEZE-M DEB (TANK) 4.4 01:35:05 21° WNW 01:37:17 41° N 01:47:48 10° ENE
Cosmos 1153 Rocket 4.4 01:32:17 10° NNW 01:38:25 68° W 01:38:54 65° WSW
Cosmos 2360 Rocket 2.5 01:34:38 10° NNW 01:40:16 63° ENE 01:41:16 54° ESE
Cosmos 1980 Rocket 4.1 01:37:10 10° WNW 01:39:36 16° W 01:39:36 16° W
Cosmos 1000 Rocket 4.5 01:42:53 64° SSE 01:43:45 73° E 01:50:05 10° N
Meteor 1-24 Rocket 3.8 01:44:07 69° WSW 01:44:35 72° W 01:50:38 10° N
Cosmos 1076 Rocket 4.5 01:47:54 41° ENE 01:47:54 41° ENE 01:51:24 10° NNE
Cosmos 2322 Rocket 2.9 01:43:47 10° NW 01:48:24 41° W 01:48:24 41° W
Cosmos 2173 Rocket 3.8 01:45:28 10° N 01:51:37 88° E 01:52:26 69° SSE
Okean 3 Rocket 3.8 01:57:49 69° NNE 01:57:49 69° NNE 02:01:50 10° N
Cosmos 2333 Rocket 4.4 01:54:45 10° N 01:59:08 22° NE 02:03:29 10° ESE
PSLV R/B 3.9 01:56:42 10° NNE 02:00:18 60° NE 02:00:18 60° NE
Resurs 1-4 Rocket 4.4 02:00:40 10° ENE 02:03:14 13° E 02:05:36 10° ESE
CZ-2D R/B 4.4 02:04:32 10° ENE 02:07:13 14° E 02:09:32 11° ESE
NOSS 3-1 (C) 4.3 02:04:43 10° NW 02:12:05 49° WSW 02:13:13 46° SW
SL-16 R/B 4.3 02:08:33 10° ESE 02:13:37 28° ENE 02:18:41 10° N
Cosmos 1802 Rocket 4.0 02:12:27 10° NNW 02:18:42 67° W 02:19:43 57° SW
Cosmos 1459 Rocket 4.2 02:13:01 10° NNW 02:19:11 56° W 02:20:07 51° WSW
Cosmos 2297 Rocket 4.4 02:17:08 11° ESE 02:19:31 14° E 02:22:13 10° ENE
Cosmos 1408 Rocket 3.5 02:26:02 80° ENE 02:26:02 80° ENE 02:30:16 10° N
Meteor 1-21 Rocket 4.2 02:25:17 61° SSW 02:26:25 86° W 02:32:21 10° N
Cosmos 2219 Rocket 3.4 02:21:24 10° N 02:26:46 41° ENE 02:32:05 10° SE
Cosmos 2100 Rocket 4.4 02:23:07 10° NNW 02:28:51 42° W 02:29:31 41° WSW
Cosmos 1766 Rocket 3.5 02:29:18 85° N 02:29:18 85° N 02:33:35 10° N
Cosmos 1340 Rocket 3.6 02:30:29 43° NW 02:30:29 43° NW 02:33:35 10° N
USA 234 4.2 02:32:58 28° W 02:32:58 28° W 02:37:04 10° WNW
Cosmos 2061 Rocket 4.3 02:26:28 10° NNW 02:32:22 48° W 02:33:15 45° WSW
Cosmos 2016 Rocket 4.1 02:28:52 10° NNW 02:35:07 60° W 02:36:28 49° SW
Cosmos 1674 3.5 02:37:48 43° NW 02:37:48 43° NW 02:40:53 10° N
H-2A R/B 4.1 02:33:49 10° NNW 02:37:06 24° WNW 02:37:06 24° WNW
SL-16 R/B 4.1 02:33:48 10° WNW 02:36:00 16° W 02:36:00 16° W
Cosmos 2237 Rocket 4.0 02:33:53 10° N 02:38:49 30° NE 02:43:42 10° ESE
Cosmos 1328 4.4 02:39:22 48° E 02:39:30 49° E 02:43:20 10° NNE
NOSS 3-1 (A) 4.5 02:35:24 10° NW 02:42:36 42° WSW 02:44:05 39° SW
ATLAS 2AS CENTAUR R/B 3.4 02:35:06 10° NNW 02:43:06 63° NE 02:50:30 10° SE
Lacrosse 5 rocket 2.1 02:39:05 10° NW 02:42:28 44° WNW 02:42:28 44° WNW
IRS-P3 4.0 02:44:11 10° NNE 02:49:32 88° E 02:50:55 52° SSW
NOSS 3-3 (A) 4.4 02:48:07 38° SSE 02:50:06 53° ESE 02:56:27 10° NE
NOSS 3-3 (C) 4.4 02:48:12 38° SSE 02:50:12 52° ESE 02:56:33 10° NE
Cosmos 1515 Rocket 4.0 02:45:49 10° N 02:50:12 57° E 02:51:31 39° SE
Cosmos 1743 Rocket 3.6 02:50:22 60° SSE 02:51:03 73° E 02:55:29 10° NNE
CBERS-1 4.0 02:46:19 10° NNE 02:51:28 78° ESE 02:52:48 50° S
Cosmos 1300 2.7 02:48:24 10° N 02:52:14 72° E 02:52:24 70° ESE
Cosmos 2227 Rocket 3.2 02:53:34 26° SSE 02:55:56 37° ESE 03:01:06 10° NE
Cosmos 2221 4.3 02:53:08 10° NW 02:55:22 19° WNW 02:55:22 19° WNW
Cosmos 2237 4.4 02:51:24 10° NW 02:56:54 51° WSW 02:57:42 47° SW
NPP 3.6 02:51:47 10° NNE 02:57:12 86° WNW 02:58:49 48° SSW
Cosmos 2322 4.4 02:52:55 10° NW 02:57:54 35° WSW 02:57:54 35° WSW
Cosmos 2123 Rocket 4.3 02:56:27 41° SW 02:58:13 53° W 03:04:17 10° N
Helios 1A Rocket 4.0 02:56:05 10° N 02:59:48 32° WNW 02:59:57 32° WNW
Lacrosse 5 3.2 02:57:20 22° W 02:59:48 33° NNW 03:04:25 10° NNE
ARIANE 5 R/B 3.4 02:56:26 10° NNE 03:01:16 41° E 03:03:43 25° SSE
Cosmos 1954 Rocket 4.3 03:00:23 39° SSE 03:02:11 61° ESE 03:07:23 10° NNE
ADEOS Rocket 3.8 02:55:10 10° NNE 03:02:28 64° ESE 03:07:20 25° S
Cosmos 407 Rocket 3.5 03:04:00 48° SW 03:05:21 69° WNW 03:10:31 10° NNE
ISS -0.9 03:03:46 10° NNW 03:06:12 19° NNE 03:08:38 10° ENE
Cosmos 1447 Rocket 4.4 03:04:32 39° SSW 03:07:03 81° W 03:13:21 10° N
Meteor 1-11 4.5 03:06:11 31° SSE 03:08:55 66° E 03:14:35 10° NNE
COSMOS 2428 2.8 03:04:44 10° NNW 03:10:18 53° WSW 03:12:00 40° SSW
Cosmos 1726 2.5 03:06:46 10° NNW 03:10:06 48° WNW 03:10:06 48° WNW
Cosmos 2228 Rocket 3.1 03:07:46 10° NNW 03:12:12 62° W 03:12:59 52° SW
Cosmos 2219 3.5 03:10:48 37° WSW 03:12:42 53° WNW 03:18:12 10° NNE
Cosmos 2058 3.1 03:14:39 41° SSE 03:15:53 64° E 03:19:57 10° NNE
Cosmos 676 Rocket 4.0 03:14:54 42° SSW 03:16:47 81° WNW 03:22:06 10° NNE
Cosmos 2233 Rocket 4.1 03:12:27 10° NNW 03:18:42 63° W 03:21:41 32° SSW
Cosmos 2333 4.5 03:16:41 10° NW 03:22:10 47° WSW 03:24:03 35° SSW
Cosmos 2082 4.2 03:20:13 26° S 03:23:09 54° ESE 03:28:36 10° NNE
Cosmos 2360 Rocket 3.8 03:20:01 10° WNW 03:23:00 18° W 03:23:00 18° W
Cosmos 1242 Rocket 4.0 03:21:55 10° NW 03:24:02 23° WNW 03:24:02 23° WNW
Cosmos 1328 Rocket 4.1 03:22:32 10° NNW 03:26:42 39° W 03:27:16 37° WSW
Spot 4 Rocket 4.0 03:23:17 10° NNE 03:28:28 90° WNW 03:30:59 31° SSW
SL-08 R/B 4.0 03:31:19 34° SW 03:32:22 39° W 03:37:00 10° NNW
Cosmos 1455 3.0 03:32:24 10° N 03:36:10 50° E 03:39:30 13° SSE
Cosmos 1703 3.2 03:35:49 37° S 03:37:17 87° ESE 03:41:13 10° N
Lacrosse 4 Rocket 4.0 03:38:23 10° SE 03:40:08 12° ESE 03:41:53 10° ENE
MOZ.5/SAFIR/RUBIN 5/SL-8 4.5 03:38:01 10° SSE 03:42:39 56° ENE 03:47:20 10° N
Meteor 2-10 4.4 03:38:05 10° NNW 03:42:52 43° W 03:44:59 28° SW
Resurs 1-4 Rocket 2.1 03:38:18 10° N 03:43:36 74° WNW 03:46:41 26° SSW
Cosmos 2333 Rocket 2.2 03:38:13 10° NNW 03:43:50 61° WSW 03:49:16 11° S
SL-14 R/B 4.5 03:43:13 26° W 03:43:58 28° WNW 03:47:30 10° NNW
Cosmos 1151 Rocket 3.3 03:40:18 10° NNW 03:44:27 46° W 03:45:58 32° SW
Cosmos 2151 3.3 03:43:27 34° SW 03:44:48 47° WNW 03:48:53 10° N
Cosmos 1464 Rocket 3.9 03:38:54 10° N 03:45:07 87° W 03:51:07 11° S
IRS-1D 3.6 03:39:52 10° N 03:45:12 71° WNW 03:48:18 25° SSW
CZ-2D R/B 2.1 03:42:35 10° N 03:47:47 69° WNW 03:50:51 25° SSW
Cosmos 1707 Rocket 4.3 03:46:19 10° N 03:50:36 53° E 03:54:54 10° SSE
UNKNOWN OBJECT B 3.0 03:49:54 10° NNE 03:53:58 72° ESE 03:56:38 20° S
SL-16 R/B 2.7 03:52:25 18° S 03:56:55 49° W 04:02:54 10° NNW
UNK 4.1 03:54:54 25° SSW 03:57:05 42° W 04:01:29 10° NNW
ADEOS 3.7 03:53:35 10° N 03:58:44 59° WNW 04:02:03 22° SW
ADEOS II 4.1 03:54:52 10° NE 03:59:10 25° E 04:03:29 10° SSE
MOS 1 Rocket 3.8 03:54:48 10° NNE 03:59:51 68° E 04:04:51 11° S
Cosmos 2297 Rocket 2.2 03:58:57 21° SSW 04:02:47 79° WNW 04:08:28 10° NNE
Cosmos 1980 3.8 03:57:28 10° NNW 04:03:00 55° WSW 04:08:32 10° S
SL-8 R/B 4.1 03:59:49 18° W 04:03:17 59° NNW 04:08:03 10° ENE
NOSS 7 (D) 4.4 04:02:24 29° SW 04:03:59 70° NW 04:07:18 10° NNE
Cosmos 1666 Rocket 3.9 04:00:54 13° S 04:04:49 67° E 04:09:14 10° NNE
CZ-3A R/B 3.8 04:04:50 10° NNW 04:07:27 27° NE 04:13:59 10° E
ERBS 3.2 04:07:24 21° W 04:09:12 38° NW 04:12:24 10° NNE
Cosmos 2219 Rocket 3.1 04:05:42 10° NW 04:10:31 29° WSW 04:13:56 16° SSW
ATLAS 3B CENTAUR R/B 3.7 04:05:21 13° WSW 04:13:47 29° SSW 04:18:22 10° SE
NOSS 0 Rocket 4.5 04:11:08 10° NW 04:16:43 36° WSW 04:22:19 10° S
Cosmos 1626 3.2 04:15:14 20° WSW 04:16:53 29° WNW 04:20:10 10° NNW
Cosmos 1356 3.9 04:15:42 22° SW 04:17:37 43° WNW 04:21:00 10° N
Cosmos 1850 Rocket 4.1 04:13:49 18° SW 04:17:38 60° WNW 04:22:47 10° NNE
Aureole 2 Rocket 3.5 04:15:46 10° NW 04:19:25 35° WSW 04:22:57 11° SSW
Okean O Rocket 3.3 04:16:06 10° NNE 04:20:00 31° E 04:23:52 10° SSE
SL-16 R/B 2.3 04:15:11 10° NNW 04:20:55 82° ENE 04:26:35 10° SSE
Cosmos 1741 Rocket 4.2 04:17:21 17° SW 04:21:24 59° WNW 04:26:40 10° NNE
Cosmos 1805 Rocket 3.9 04:18:52 16° SSW 04:22:12 51° W 04:26:32 10° N
GPS 2-04 Rocket1 3.4 04:19:42 18° WSW 04:22:20 37° S 04:26:19 10° ESE
Cosmos 2237 Rocket 2.6 04:17:43 10° NW 04:22:58 40° WSW 04:28:09 10° S
CZ-4B R/B 4.3 04:22:57 10° NNE 04:27:11 40° E 04:31:14 10° SSE
CZ-3A R/B 4.1 04:21:54 13° SSW 04:27:17 31° SSE 04:54:03 10° ESE
Cosmos 1570 Rocket 4.3 04:27:15 10° NNW 04:32:25 50° WSW 04:37:32 10° S
NOSS 2-1 (D) 4.4 04:29:44 14° WSW 04:32:38 34° NW 04:36:37 10° NNE
NOSS 2-1 (C) 4.4 04:29:53 14° WSW 04:32:48 34° NW 04:36:47 10° NNE
ATLAS 2AS CENTAUR R/B 3.6 04:26:56 10° NW 04:33:35 31° WSW 04:39:49 10° SSW
NOSS 3-4 (A) 4.3 04:27:25 10° NNW 04:34:26 68° NE 04:41:54 10° SE
NOSS 3-4 (C) 4.3 04:27:32 10° NNW 04:34:33 68° NE 04:42:00 10° SE
Cosmos 2227 Rocket 3.2 04:35:24 12° WSW 04:40:00 32° WNW 04:45:04 10° N
ARIANE 5 R/B 3.8 04:36:04 10° NNW 04:40:07 24° WNW 04:44:04 10° WSW
Cosmos 2034 Rocket 4.4 04:34:27 10° NNW 04:40:24 44° W 04:46:21 10° SSW
BREEZE-M DEB (TANK) 3.9 04:34:43 10° W 04:41:57 52° NNW 04:45:01 10° ENE
ISS -3.7 04:39:49 10° NW 04:43:06 81° NE 04:46:22 10° ESE
USA 161 2.0 04:42:56 14° SW 04:44:09 22° W 04:45:50 10° NW
Lacrosse 5 4.3 04:41:25 10° NW 04:44:12 14° N 04:46:59 10° NNE
ATLAS 5 CENTAUR R/B 4.4 04:43:45 10° SE 04:45:50 13° ESE 04:47:59 10° E
USA 215 4.1 04:40:37 10° ENE 04:46:48 43° SE 04:52:57 10° SSW
Cosmos 1470 Rocket 3.6 04:44:41 10° S 04:49:00 84° E 04:53:20 10° N
Tsikada Rocket 4.4 04:46:58 10° SSW 04:53:01 47° WNW 04:59:12 10° N
Cosmos 1633 Rocket 3.6 04:49:24 10° SSW 04:53:32 42° WNW 04:57:42 10° N
Cosmos 1869 4.1 04:50:28 10° NNW 04:54:08 33° W 04:57:45 10° SSW
SL-24 R/B 4.5 04:54:38 10° N 04:58:28 39° WNW 05:01:58 10° SW
Sich 1 4.1 04:57:05 10° SW 05:00:57 30° WNW 05:04:50 10° NNW
CZ-3 R/B 3.7 05:09:17 10° W 05:37:06 43° SSW 05:44:35 10° SE
